Flag for U.S.A. Weather past 2 weeks in Atascadero, California, U.S.A.

Now
83 °F

Sunny.


Feels Like: 82 °F
Forecast: 59 / 82 °F
Wind: 16 mph from Southwest

Location: Paso Robles Municipal Airport

Current Time: Aug 2, 2015 at 6:16:44 PM

Latest Report: Aug 2, 2015 at 5:53 PM


Visibility: 10 mi

Pressure: 29.81 "Hg

Humidity: 37%

Dew point: 54 °F

Location of AtascaderoLocation

Historic Weather in Atascadero — Graph

°F

Atascadero temperature yesterday

Maximum temperature yesterday: 96 °F (at 2:53 PM)
Minimum temperature yesterday: 60 °F (at 5:53 AM)
Average temperature yesterday: 74 °F

Past Weeks' High & Low Weather Summary

 TemperatureHumidityPressure
High101 °F (Jul 30, 1:53 PM)97% (Jul 26, 6:53 AM)30.09 "Hg (Jul 26, 6:53 AM)
Low55 °F (Jul 27, 4:53 AM)10% (Jul 27, 2:53 PM)29.77 "Hg (Jul 28, 4:53 PM)
Average73 °F58%29.93 "Hg
* Reported Jul 18 4:53 PM — Aug 2 4:53 PM, Atascadero, Weather by CustomWeather, © 2015

Note: Actual official high and low records may vary slightly from our data, if they occured in-between our weather recording intervals... More about our weather records

Advertising

Atascadero weather history for previous 24 hours

 ConditionsComfort  
Time TempWeatherWind HumidityBarometerVisibility
4:53 PM
Sun, Aug 2
86 °FSunny.20 mph35%29.81 "Hg10 mi
3:53 PM90 °FSunny.17 mph33%29.82 "Hg10 mi
2:53 PM92 °FSunny.14 mph29%29.84 "Hg10 mi
1:53 PM91 °FSunny.6 mph28%29.86 "Hg10 mi
12:53 PM87 °FSunny.5 mph32%29.89 "Hg10 mi
11:53 AM81 °FSunny.6 mph39%29.91 "Hg10 mi
10:53 AM76 °FSunny.6 mph48%29.93 "Hg10 mi
9:53 AM72 °FSunny.7 mph57%29.95 "Hg10 mi
8:53 AM66 °FSunny.7 mph73%29.96 "Hg10 mi
7:53 AM63 °FSunny.9 mph81%29.95 "Hg10 mi
6:53 AM60 °FClear.7 mph90%29.94 "Hg10 mi
5:53 AM59 °FClear.5 mph93%29.93 "Hg10 mi
4:53 AM60 °FClear.5 mph90%29.92 "Hg10 mi
3:53 AM61 °FClear.3 mph87%29.92 "Hg10 mi
2:53 AM62 °FClear.6 mph83%29.91 "Hg10 mi
1:53 AM63 °FClear.9 mph81%29.92 "Hg10 mi
12:53 AM64 °FClear.8 mph75%29.93 "Hg10 mi
11:53 PM
Sat, Aug 1
66 °FClear.8 mph65%29.93 "Hg10 mi
10:53 PM69 °FClear.12 mph53%29.94 "Hg10 mi
9:53 PM71 °FClear.10 mph41%29.95 "Hg10 mi
8:53 PM69 °FSunny.10 mph61%29.93 "Hg10 mi
7:53 PM72 °FSunny.16 mph55%29.90 "Hg10 mi
6:53 PM77 °FSunny.16 mph47%29.87 "Hg10 mi
Weather by CustomWeather, © 2015

See weather overviewHow to use our weather pages